Theta_e
318 318 316 316 315 315 315 315 314 314 312 311 312 310 308 306 305 305 303 298 296 296 296 295 295 295 296 295 294 294 294 294 295 296 298 298 298 305 314 317 320 321 321 322 323 323 323 322 322 321 321 321 321 322 320 321 322 321 320 321 320 320 319 320 320 320 321 322 322 322 322 322 322 323 324 325 325 326 326 327 328 329 329 329 330
318 317 316 315 315 315 314 314 314 314 313 312 311 311 308 304 302 303 300 297 297 297 295 295 294 295 295 295 295 295 294 294 294 297 297 297 299 301 312 315 319 321 322 320 321 322 322 322 322 322 322 321 321 321 320 320 324 321 320 319 319 319 319 319 319 319 321 320 320 320 320 321 321 321 322 323 322 323 324 325 325 326 326 327 328
319 317 316 315 314 314 314 313 313 313 314 312 309 311 307 304 301 299 297 296 295 295 294 294 294 295 295 294 295 294 294 294 294 295 297 297 298 299 302 312 316 319 322 322 320 320 321 321 321 321 321 321 321 322 321 319 322 321 319 318 319 318 318 318 318 318 320 319 318 318 319 319 320 320 320 320 321 322 321 322 322 324 324 325 325
319 317 317 314 313 313 313 312 312 312 313 311 307 307 305 301 298 297 296 295 295 294 294 294 294 295 293 293 293 294 293 293 294 295 297 297 298 299 298 302 310 314 317 321 323 321 319 320 320 320 323 322 322 321 319 319 320 321 320 319 318 318 317 317 318 318 319 318 318 318 318 319 319 319 319 319 319 320 320 321 321 321 321 321 323
318 318 315 315 313 313 312 312 312 311 311 309 305 302 300 298 297 297 295 294 294 294 294 293 293 293 294 293 292 293 293 294 294 295 295 296 297 298 298 299 299 306 311 314 319 322 320 319 320 322 325 326 321 320 319 319 319 321 319 320 318 317 316 315 316 317 317 318 318 317 319 319 318 318 318 318 318 318 319 318 318 319 320 320 320
317 315 315 314 313 312 312 310 310 309 309 305 304 300 298 297 296 295 296 294 293 293 292 292 292 292 292 292 292 292 293 293 293 294 293 294 297 298 298 298 297 298 299 307 312 316 321 322 322 322 322 325 319 318 320 319 320 320 319 318 317 318 318 317 316 317 317 318 317 317 317 317 317 317 317 317 317 317 317 317 318 318 318 318 319
316 316 314 313 312 310 310 310 308 307 306 302 302 298 297 296 295 294 294 292 292 293 292 292 292 293 292 293 293 291 292 294 294 292 293 292 296 298 298 298 297 296 297 295 302 310 315 319 320 321 322 323 320 318 317 317 317 318 318 318 317 317 317 317 317 318 318 317 316 316 316 317 316 316 316 316 316 316 316 316 316 317 317 317 317
315 314 314 312 311 310 308 307 305 305 303 299 299 297 296 296 295 294 292 291 292 291 291 291 291 292 291 291 292 292 292 293 293 292 292 291 292 292 293 295 295 295 298 295 296 301 311 313 316 317 319 320 322 319 317 318 317 318 317 317 316 317 316 316 316 316 316 316 315 315 316 315 315 315 315 315 314 314 315 315 315 316 316 316 317
313 313 312 311 309 310 306 306 304 303 300 298 297 296 296 296 294 293 294 291 291 290 289 291 291 291 289 290 290 292 292 293 292 292 292 292 290 290 290 290 293 299 293 294 294 294 304 310 311 312 313 316 319 320 322 320 318 317 317 316 316 316 316 315 315 316 316 315 314 314 313 314 314 314 313 313 313 313 313 313 313 313 314 314 314
312 311 310 310 309 308 306 305 303 302 300 297 296 294 295 295 294 291 292 291 290 290 290 290 292 291 289 290 290 290 290 291 292 294 291 291 290 289 289 289 290 291 291 292 293 293 294 301 305 306 307 312 316 318 320 321 323 317 317 316 315 315 315 316 315 315 314 313 313 312 313 312 312 312 311 311 311 312 312 312 313 313 314 314 314
311 311 311 308 307 306 305 303 302 300 299 298 296 294 294 294 294 291 290 291 290 290 290 291 292 291 290 290 290 290 290 290 292 291 291 291 290 291 290 290 290 290 290 290 291 292 293 292 291 292 297 308 312 315 317 319 319 322 318 317 316 315 315 316 315 314 312 312 311 311 311 311 311 310 310 310 311 311 311 312 312 312 313 313 314
312 312 311 309 307 306 305 302 301 300 299 297 295 294 294 292 292 292 290 290 289 290 291 291 289 289 289 288 288 289 289 290 290 290 290 290 292 290 290 288 289 289 289 289 290 290 290 291 293 293 294 301 306 308 311 313 315 319 320 317 317 316 315 314 313 312 311 311 310 310 310 310 310 310 310 309 310 310 311 311 311 311 312 312 312
311 310 310 308 307 304 304 302 300 300 299 299 297 295 294 294 292 292 291 289 288 289 291 291 290 287 287 286 287 287 289 289 289 289 289 289 289 289 289 290 288 288 288 289 289 288 288 289 291 292 293 291 292 301 304 306 307 316 321 317 316 317 315 314 313 312 311 310 310 309 309 310 309 309 309 309 309 310 310 310 310 311 311 311 311
308 308 307 306 305 303 302 302 300 300 299 298 296 295 293 292 291 289 290 291 289 290 291 291 287 287 286 285 284 285 286 288 288 288 289 289 289 289 289 289 289 288 287 288 288 288 288 288 289 291 292 291 289 289 292 294 297 311 316 320 317 317 315 314 312 312 310 310 309 309 308 308 308 308 308 308 308 309 309 310 310 309 310 310 310
303 303 305 305 304 302 300 300 300 300 299 297 295 294 293 293 291 292 289 288 289 291 291 292 287 285 284 284 281 283 285 285 285 288 289 288 288 288 288 288 289 288 289 289 289 288 289 288 289 290 291 289 288 289 290 295 296 301 308 314 316 316 316 313 312 311 311 310 309 308 308 308 308 308 308 308 308 309 309 309 309 309 309 309 309
299 299 300 302 303 302 301 299 299 298 299 298 296 295 293 292 292 292 291 289 288 289 291 290 287 288 283 284 281 281 280 283 284 285 287 288 287 287 288 288 288 287 288 289 288 288 289 288 289 290 289 288 287 288 289 289 295 298 299 302 310 315 314 314 312 312 311 311 310 308 307 306 306 308 308 308 307 308 308 308 308 308 308 308 309
297 297 298 299 299 300 300 298 298 297 298 297 296 296 295 294 293 292 290 291 289 288 290 289 288 292 288 282 280 281 282 281 283 282 284 286 286 287 288 288 287 287 287 287 288 288 288 288 289 289 289 289 288 288 288 289 289 293 293 298 304 311 314 313 313 312 311 311 311 309 307 306 306 307 307 308 308 308 308 308 308 307 308 308 308
296 297 296 296 297 297 298 297 297 298 297 297 297 295 295 294 293 293 291 291 290 288 288 291 289 289 287 287 286 284 281 281 282 280 284 284 285 286 287 287 287 287 287 287 287 287 288 289 289 290 289 289 288 288 288 288 290 289 290 294 305 307 309 312 312 312 311 311 311 310 308 307 306 306 306 307 307 307 308 307 307 307 307 307 307
296 294 295 295 295 295 295 296 295 295 296 296 295 295 295 294 294 293 292 292 288 288 288 290 289 288 289 288 288 285 285 284 282 279 279 282 283 285 285 286 286 287 287 286 286 287 288 289 289 289 289 290 289 288 288 288 292 292 297 301 303 304 305 306 310 310 310 310 310 309 308 307 306 306 306 306 306 306 307 307 307 307 307 307 307
295 294 293 294 294 295 294 294 294 293 293 294 295 295 295 295 294 294 293 292 290 289 289 288 289 289 289 288 287 286 284 286 283 286 282 280 281 283 283 285 285 286 287 286 286 287 287 288 289 289 289 289 289 288 287 288 289 290 292 300 301 302 302 303 304 306 307 309 309 308 309 308 307 307 307 306 306 307 306 306 306 306 307 306 307
293 294 292 293 293 293 292 292 293 293 291 293 292 292 292 292 293 293 293 292 291 289 288 288 288 289 287 287 286 288 287 285 285 284 282 282 280 281 282 283 284 285 286 286 287 287 288 288 289 289 289 289 288 287 287 288 288 289 293 300 301 302 303 303 302 301 301 302 304 307 308 307 307 306 307 307 306 306 306 306 306 306 306 306 305
293 292 292 292 292 292 292 292 292 293 292 291 290 290 290 289 290 291 292 292 292 290 289 287 289 289 288 288 287 285 287 287 285 284 284 283 283 280 282 282 282 284 286 285 286 287 287 288 288 288 289 289 287 287 287 287 287 288 292 299 300 301 302 302 301 300 300 300 300 300 304 305 305 306 307 307 307 306 306 306 306 306 306 305 305
292 292 292 292 292 291 291 291 291 291 292 292 292 291 290 290 290 289 289 290 291 291 290 289 287 287 287 286 287 288 289 288 287 286 286 284 283 281 280 283 284 282 284 287 286 286 287 287 287 288 288 289 287 286 286 286 289 290 294 298 299 300 301 301 301 300 299 299 298 299 299 299 301 304 306 307 307 307 307 306 306 305 305 305 305
290 290 291 291 292 292 291 290 291 291 292 292 292 292 291 290 289 288 288 288 289 289 289 289 287 286 286 287 287 288 289 289 289 289 288 287 286 283 281 281 282 282 281 284 284 286 286 286 287 288 288 288 288 287 286 286 287 292 293 297 298 300 300 301 301 300 299 298 298 298 299 299 299 300 303 305 305 306 306 306 306 305 305 305 304
288 288 289 290 290 291 292 291 291 291 291 290 291 291 290 289 289 287 287 287 287 287 287 287 287 287 286 286 287 287 288 289 289 288 289 288 286 283 281 281 281 281 281 282 283 284 286 286 287 287 288 288 288 287 286 285 285 291 293 294 297 298 299 300 300 299 298 298 298 297 297 298 299 299 300 302 303 304 305 306 306 305 305 304 304
287 287 288 289 289 290 290 290 289 288 288 289 289 289 289 289 289 287 286 287 285 285 286 286 286 286 285 285 284 285 287 288 288 287 288 288 285 285 282 282 280 281 280 281 281 283 283 285 286 287 287 288 288 287 286 285 285 292 292 290 293 297 298 299 300 298 298 297 297 297 296 296 297 298 299 301 302 302 303 304 305 305 304 304 303
286 287 287 287 287 287 288 288 288 289 289 289 290 288 288 288 288 287 287 286 285 285 285 284 286 285 284 285 285 284 285 286 287 288 288 288 288 285 284 283 281 280 280 280 280 282 282 284 286 286 287 287 288 287 286 285 287 292 291 288 288 294 296 298 299 299 298 297 297 296 295 295 296 297 298 299 301 300 300 301 302 303 303 303 302
285 286 286 286 285 286 286 286 287 288 288 287 287 287 287 287 287 287 287 288 286 285 285 284 284 284 285 285 284 285 285 284 286 287 287 288 288 287 286 286 285 282 279 279 279 281 283 283 283 286 287 287 288 288 287 287 286 292 290 285 286 290 295 297 298 299 298 297 297 296 295 295 295 296 297 297 299 298 299 300 300 300 299 299 299
284 285 285 284 284 284 284 285 285 285 286 286 286 286 285 286 286 286 286 287 286 285 285 285 284 284 284 284 285 286 285 285 285 285 286 286 287 287 288 288 287 286 281 279 280 280 281 283 282 284 287 287 287 287 286 285 287 289 286 284 284 285 292 296 298 299 298 297 297 296 295 294 294 294 295 296 296 296 296 297 297 296 296 296 296
283 284 283 283 283 284 284 284 284 284 284 285 285 286 285 286 286 286 286 285 285 286 285 285 284 284 284 284 284 284 284 284 285 285 285 286 285 286 287 287 288 288 285 282 283 281 281 282 284 283 285 286 287 286 286 285 288 289 284 282 283 283 290 294 297 298 297 297 296 295 295 294 294 294 294 295 295 295 296 296 295 295 295 295 296
282 282 283 283 282 283 283 283 283 284 284 284 284 285 284 285 285 286 286 285 285 285 286 285 286 285 284 284 284 284 284 284 284 284 284 284 285 285 285 287 286 288 288 283 284 282 284 281 283 284 284 286 287 286 286 285 287 288 284 282 281 285 288 291 293 296 296 296 295 295 295 294 294 294 294 294 294 295 295 295 295 295 295 295 295
281 281 282 283 284 284 284 283 283 284 284 284 284 284 284 284 284 285 285 284 284 285 285 285 285 285 284 284 284 284 284 283 284 284 284 284 285 284 285 285 286 287 287 285 284 285 283 284 283 284 284 285 286 285 284 284 285 289 283 282 282 285 285 286 292 294 295 295 295 295 295 294 294 294 294 294 294 294 294 295 295 294 294 294 294
280 281 281 282 283 283 284 284 284 284 284 284 285 285 284 284 284 284 284 284 284 284 284 284 285 284 284 284 284 284 284 284 284 284 284 284 284 284 284 284 285 285 285 284 284 285 281 282 282 283 283 285 284 285 283 282 283 285 284 282 282 282 282 283 285 291 293 294 294 295 295 294 294 294 294 293 293 294 294 294 294 293 294 294 293
279 280 280 281 281 282 282 283 283 284 284 284 284 284 284 284 284 285 285 284 284 284 284 284 285 285 284 284 284 285 285 284 284 284 284 284 283 283 284 283 284 284 284 284 284 284 284 280 280 280 282 285 283 284 284 282 282 283 281 281 281 282 282 282 282 285 292 293 293 294 294 294 294 294 294 294 294 293 293 293 293 293 293 293 292
279 279 280 280 280 280 280 281 282 282 283 283 284 284 284 284 284 284 285 284 284 284 284 284 285 285 284 284 284 285 285 284 284 284 284 283 284 283 284 284 283 284 283 284 284 283 283 280 280 280 281 283 284 283 284 283 283 283 281 280 280 281 282 281 281 281 289 292 293 293 293 293 293 294 294 294 293 293 293 293 292 292 292 292 293
278 279 279 279 280 279 280 280 280 280 281 282 282 283 283 283 284 284 284 284 284 284 284 284 284 284 285 284 285 285 284 284 284 284 283 283 283 284 283 284 284 284 283 283 283 284 283 281 280 281 282 282 283 283 284 283 282 281 281 281 280 280 280 280 279 279 284 291 292 292 293 293 293 293 294 294 293 293 293 292 292 292 291 292 292
278 278 278 278 279 279 279 279 280 280 280 281 281 281 282 283 283 283 283 284 284 284 284 284 285 284 284 284 285 285 284 284 284 284 284 283 284 283 283 284 284 284 284 283 283 283 282 281 281 281 282 282 283 281 283 281 280 280 280 280 279 279 279 279 279 280 283 288 290 291 292 292 293 293 293 294 294 293 293 292 292 292 291 291 291
277 277 277 278 278 278 279 279 280 280 280 280 280 280 281 282 282 283 283 283 283 284 284 284 284 284 284 284 285 285 284 284 284 284 284 284 284 284 283 284 284 284 283 283 283 283 282 282 281 280 280 281 280 280 282 282 280 279 278 278 278 278 278 278 278 280 281 284 286 288 290 291 291 292 293 293 293 293 292 292 291 291 291 290 290
276 276 276 277 277 278 278 279 279 280 280 280 280 280 280 281 281 282 282 283 283 283 283 283 284 284 284 284 284 284 284 284 284 284 285 284 284 284 284 284 284 283 283 283 283 282 282 282 280 280 280 281 281 280 281 282 281 280 278 277 276 278 278 278 278 279 281 282 286 288 287 287 289 290 291 292 293 293 292 292 291 291 290 290 289
276 276 276 276 276 277 277 278 278 279 279 279 279 279 280 280 280 281 281 282 282 283 283 283 283 283 284 284 284 284 284 284 284 285 285 285 285 284 285 284 284 284 283 283 283 283 282 282 281 280 280 280 280 279 280 280 279 278 279 278 276 277 277 279 279 279 280 280 281 283 287 288 288 290 291 292 292 292 292 291 291 290 289 289 289
277 276 276 276 276 276 276 276 277 277 278 278 279 280 280 280 280 280 280 281 281 282 282 282 283 283 283 284 284 284 285 285 286 286 286 286 285 285 285 284 284 284 284 284 284 283 283 283 281 280 279 279 280 279 278 278 278 278 279 279 278 279 278 278 278 280 280 279 279 281 282 284 283 284 285 286 287 290 290 290 289 289 289 289 289
276 276 276 276 275 275 275 275 275 276 276 277 280 282 283 282 281 281 281 281 281 282 282 282 282 283 283 283 284 285 285 285 286 286 287 288 288 287 286 285 285 284 284 283 283 283 283 283 282 281 279 279 280 280 279 280 281 281 279 279 278 278 278 277 278 278 280 279 278 278 280 283 282 282 282 282 284 286 286 287 285 287 288 289 289
276 275 275 275 275 275 274 274 274 275 275 276 280 282 283 284 282 281 281 281 281 281 281 281 281 281 282 283 283 283 284 285 285 286 287 288 288 288 288 288 287 285 283 283 283 283 283 283 283 282 280 280 280 281 280 280 280 280 280 279 279 278 277 276 275 277 279 279 278 277 278 281 281 280 280 281 281 282 284 284 287 288 288 289 289
275 275 275 275 275 274 274 274 274 274 274 278 280 281 281 282 282 281 281 281 281 281 281 280 281 281 281 282 282 283 283 283 283 283 285 287 288 288 288 288 288 289 288 285 284 283 283 283 283 283 282 281 281 281 280 280 279 280 280 280 279 278 277 277 277 277 278 280 278 277 277 280 281 280 279 279 280 281 282 285 288 288 288 288 288
274 273 274 274 274 274 274 273 273 273 273 277 279 280 280 281 282 281 279 280 280 280 280 280 280 280 280 280 281 282 283 284 284 284 283 283 285 287 288 288 288 289 289 290 289 286 285 284 283 283 283 282 281 281 281 281 281 279 280 279 279 279 279 278 278 279 278 280 279 278 277 278 279 278 278 279 280 280 282 286 288 288 289 288 287
272 272 272 272 272 272 273 272 272 273 273 276 278 279 280 281 281 281 278 278 279 279 280 280 280 280 280 279 279 280 281 282 283 283 283 283 283 283 283 284 285 286 288 289 289 289 287 285 284 283 285 284 282 283 282 283 281 280 280 279 280 279 279 279 280 281 280 281 278 278 277 278 278 278 277 278 280 280 280 284 287 288 288 288 287
271 270 270 270 271 271 271 272 271 271 272 276 278 278 279 280 281 280 277 277 277 278 278 279 279 279 280 280 280 280 280 281 281 282 282 282 282 282 282 282 283 283 284 285 286 287 287 287 286 285 285 286 285 284 282 283 282 282 282 282 281 281 281 282 280 280 279 280 280 279 276 278 278 277 277 278 279 279 279 284 287 287 288 287 287
269 269 269 270 269 269 270 270 270 269 270 275 276 277 278 279 279 276 275 275 275 275 276 277 278 278 279 280 279 280 280 281 283 285 285 283 281 281 281 282 282 283 283 286 287 288 287 287 287 287 286 286 288 285 283 283 283 283 283 283 282 281 280 279 278 277 276 279 280 279 278 277 278 277 277 278 278 277 278 279 286 287 288 288 288
266 266 267 267 268 268 267 268 267 268 268 272 275 276 276 277 276 273 273 273 273 273 274 275 276 277 278 278 279 279 280 280 283 285 286 286 282 281 281 280 281 282 282 284 287 289 289 289 289 290 290 290 290 291 291 288 284 284 282 280 279 280 279 277 277 276 276 278 279 280 279 276 277 277 277 277 277 277 277 278 281 287 288 288 288
264 265 265 265 266 266 266 266 266 266 266 270 273 273 274 275 274 271 271 271 271 272 272 274 274 275 276 278 279 278 278 279 283 284 285 284 282 282 281 280 280 280 281 283 283 285 288 289 289 289 289 290 290 291 291 290 288 287 281 279 280 280 278 279 278 277 277 278 278 280 278 276 278 278 276 275 276 277 277 277 278 282 287 287 288
263 264 264 263 263 264 264 264 267 266 264 266 270 271 272 273 271 270 270 270 270 270 271 272 273 273 274 276 277 278 278 279 283 284 285 283 282 281 281 280 280 280 281 282 282 281 282 283 285 286 286 287 287 287 287 289 288 286 283 282 282 280 279 279 279 277 274 276 279 281 277 276 275 277 276 273 271 274 276 277 278 279 281 282 283
Wind_Speed
8 7 7 7 7 7 7 7 6 6 6 6 7 7 7 7 6 6 6 4 5 4 4 4 4 4 5 4 4 4 4 4 4 4 3 2 2 2 3 3 3 4 2 2 3 5 5 3 4 4 3 4 3 3 2 4 5 5 3 4 4 3 2 2 1 2 4 4 4 4 4 4 4 5 6 6 6 7 6 7 7 8 8 8 9
7 7 8 8 7 7 7 7 7 7 7 8 7 8 7 6 6 6 6 5 6 5 5 5 4 4 5 4 4 5 4 4 4 6 3 2 2 2 3 4 4 5 4 1 2 4 5 5 4 5 6 5 6 4 1 3 9 3 3 3 2 3 3 3 2 2 5 4 3 3 3 5 4 5 5 6 5 5 6 7 6 7 8 8 8
8 8 7 8 7 7 7 7 7 7 7 7 6 7 7 7 7 7 6 7 7 5 6 6 5 4 4 4 5 4 4 3 3 4 3 2 1 1 2 4 5 6 7 5 2 1 3 3 4 5 4 5 5 9 7 4 7 5 3 2 3 2 2 2 3 3 5 4 1 2 3 4 5 5 5 5 5 5 5 5 5 6 7 7 8
8 8 8 7 7 8 7 7 7 6 7 6 6 6 7 6 6 6 6 6 6 5 5 6 5 6 4 4 4 4 4 4 4 4 4 3 2 1 1 3 5 6 6 7 7 4 3 5 4 1 5 6 9 7 5 5 6 6 6 4 4 3 2 1 3 4 4 3 3 4 4 4 5 5 5 5 5 5 5 6 5 5 5 5 6
7 8 8 7 7 7 7 7 7 7 6 6 6 5 6 6 6 5 6 5 5 5 4 5 6 5 5 4 4 4 4 4 4 5 4 4 4 2 1 1 2 6 7 7 8 8 5 3 3 6 8 13 8 7 6 7 6 7 5 5 3 2 3 3 3 3 4 5 4 4 5 5 5 5 5 5 5 4 5 4 4 5 5 6 5
7 6 6 6 6 7 7 7 6 7 7 6 7 6 7 6 7 6 6 6 6 6 6 6 4 4 5 4 4 4 5 5 4 5 4 4 4 4 2 1 2 3 3 7 8 7 8 8 8 7 6 12 4 3 7 8 9 8 7 5 4 6 5 4 4 4 3 4 5 4 4 5 5 4 5 5 5 5 4 4 5 4 4 5 5
6 8 6 6 6 6 6 6 6 6 7 6 7 6 7 7 7 7 5 6 6 6 6 6 6 6 5 5 5 4 4 5 5 4 3 4 4 4 3 3 1 2 3 3 5 7 8 8 7 7 8 11 2 4 2 3 4 5 7 6 7 6 4 4 5 5 4 4 3 5 3 5 5 4 4 4 3 4 4 4 4 4 5 5 5
6 6 7 6 7 6 6 5 5 6 6 5 5 7 6 6 6 7 7 6 6 5 5 6 5 5 3 4 4 3 5 5 5 4 3 3 3 3 3 2 2 2 2 2 2 3 7 7 7 8 8 9 9 2 3 7 5 7 6 8 7 6 5 5 6 5 5 5 4 4 5 3 4 4 3 4 3 3 4 3 3 4 4 4 4
5 5 7 6 6 6 6 6 5 6 6 5 6 5 6 6 4 5 7 7 6 6 4 6 6 4 4 4 4 4 4 5 5 4 3 4 3 3 3 2 2 3 2 2 1 2 4 6 7 8 8 8 7 5 7 3 8 7 9 7 7 7 7 5 5 6 5 4 4 4 2 3 2 3 3 2 3 2 3 3 3 3 2 3 3
5 5 5 5 6 6 5 6 6 6 7 6 7 4 4 6 6 4 5 6 6 7 6 5 5 5 4 4 3 3 4 4 3 3 4 4 3 4 4 2 3 3 2 2 1 1 2 4 5 6 7 7 6 6 6 5 6 7 9 8 7 7 6 6 4 5 4 4 5 4 2 2 2 3 3 3 3 4 4 4 4 4 4 5 5
5 5 6 6 6 6 6 6 6 7 7 7 6 5 5 5 7 6 3 6 8 6 6 6 5 4 3 1 2 3 3 3 4 4 4 4 4 4 2 2 3 3 3 2 2 1 1 1 1 2 3 6 6 6 6 7 5 8 10 11 10 8 9 9 8 6 5 5 5 4 3 4 5 4 4 3 3 3 3 3 3 3 3 3 2
4 5 6 6 5 6 7 6 6 7 7 7 7 7 9 7 7 7 6 2 2 6 6 7 5 5 3 3 2 1 3 3 4 4 4 4 5 4 5 3 4 3 4 4 3 3 1 1 1 1 1 4 6 5 7 6 7 8 8 13 12 11 10 8 8 8 7 6 6 5 6 5 5 4 3 3 3 3 4 3 3 3 3 3 2
1 3 4 5 5 5 5 5 5 6 7 9 8 8 7 8 8 6 8 5 4 4 6 8 9 3 3 2 2 2 1 1 3 4 4 5 5 7 5 4 4 4 4 4 4 4 3 3 2 1 0 1 2 5 6 6 7 6 9 11 12 14 11 10 9 8 8 7 7 7 6 5 5 4 4 4 4 4 4 4 4 4 3 3 3
2 1 1 2 3 4 5 6 6 7 7 5 5 6 6 5 5 5 5 9 7 8 8 9 3 8 7 3 0 2 2 2 2 4 5 5 6 6 5 6 6 5 4 4 4 4 4 4 3 2 1 0 0 1 2 3 4 8 7 7 16 14 13 12 11 10 9 7 7 7 5 5 5 5 5 5 5 5 5 4 4 3 3 2 3
4 3 1 0 1 2 3 3 5 5 5 5 5 6 7 8 8 8 6 3 3 6 10 11 7 4 3 5 3 4 3 3 5 5 6 6 5 6 6 6 7 6 5 6 5 5 4 4 4 4 3 2 1 0 1 3 3 6 7 9 9 16 15 12 11 10 10 10 9 6 6 6 6 6 6 5 5 5 5 4 4 3 3 3 3
3 3 2 1 1 1 1 1 3 3 5 6 6 7 6 6 7 8 7 6 4 8 9 10 6 11 4 6 4 4 2 10 9 4 6 7 6 7 6 7 7 6 5 7 7 6 6 5 5 5 4 4 3 2 0 1 3 5 7 6 9 14 16 14 12 12 11 10 10 8 6 5 6 7 6 6 5 5 5 4 4 3 3 3 3
4 4 3 3 3 1 0 1 2 3 3 4 5 7 8 8 9 8 8 9 8 5 8 7 8 12 8 6 2 1 7 2 5 4 3 5 6 6 6 7 7 7 7 7 6 7 7 5 6 5 5 5 4 4 2 0 1 2 3 6 7 4 14 14 14 13 12 11 11 10 8 8 8 8 7 7 6 6 5 5 4 4 4 3 3
4 4 4 4 4 4 1 0 2 3 3 5 5 4 5 6 7 8 9 8 8 6 6 9 8 9 5 4 6 8 6 4 5 5 1 3 4 5 6 6 6 7 7 7 7 7 6 7 7 8 6 6 6 5 5 3 0 0 1 1 5 6 3 12 13 13 11 10 9 10 9 8 8 7 7 7 7 7 6 6 5 5 5 4 3
4 4 4 4 4 4 4 2 2 3 4 4 5 5 6 7 6 6 8 8 4 7 9 9 7 8 8 8 1 0 6 8 6 4 1 4 4 6 6 6 7 7 8 7 7 6 7 7 8 8 7 7 8 7 6 5 5 3 3 1 3 4 5 3 11 13 12 10 9 9 9 9 8 8 8 8 7 8 7 7 6 6 5 5 4
2 4 4 4 4 5 4 4 3 3 3 4 6 6 5 4 5 6 6 6 7 8 8 7 10 9 8 10 6 1 3 0 5 10 6 6 7 4 4 7 6 8 8 8 8 9 9 7 7 7 7 7 8 8 7 7 6 5 3 6 5 5 4 5 6 3 8 10 10 9 9 9 8 9 9 8 8 8 7 6 7 6 6 6 5
2 2 3 4 4 4 4 4 4 4 2 4 4 4 5 6 6 6 7 7 7 6 5 7 8 9 5 9 6 6 3 3 1 2 6 6 4 8 8 1 3 7 9 8 8 9 9 9 7 7 7 6 8 8 8 8 7 6 6 9 10 9 9 7 6 7 7 6 2 7 10 8 9 9 9 9 9 8 7 7 7 7 6 6 5
9 6 5 4 4 4 4 4 4 5 4 4 4 4 5 5 5 6 6 8 6 7 9 7 8 7 7 6 8 5 4 4 3 4 3 3 7 8 9 11 10 11 9 9 12 9 8 8 8 7 7 6 6 7 8 8 8 7 8 12 12 12 12 11 10 8 7 6 4 4 6 10 9 9 10 10 9 9 8 8 8 7 6 5 5
8 9 9 9 8 5 4 4 4 4 5 5 5 5 5 5 6 5 5 7 7 8 8 7 7 7 8 7 8 9 11 10 9 6 7 5 1 4 4 9 13 7 8 11 8 8 8 8 9 9 8 7 6 6 7 7 8 9 13 14 14 14 14 14 13 11 10 9 7 5 4 3 4 10 11 10 10 10 9 9 8 7 7 6 6
8 8 8 9 9 8 5 4 4 4 5 5 5 5 5 5 5 5 5 6 6 7 7 8 7 7 8 8 8 7 8 7 5 7 9 8 8 7 7 4 5 6 2 4 4 7 9 9 9 9 9 8 7 7 6 7 8 13 11 14 15 15 16 16 15 14 13 12 11 10 8 9 7 8 10 11 10 11 10 9 9 8 8 7 5
8 8 8 9 7 9 9 7 5 5 4 5 6 6 5 5 5 5 6 6 7 7 7 8 9 9 9 8 8 8 9 7 6 6 6 5 4 6 4 2 5 3 3 3 6 5 6 8 8 8 8 8 8 8 7 7 7 12 11 11 17 15 16 16 16 17 16 15 14 13 12 13 12 10 11 10 10 9 10 10 10 9 9 8 7
8 8 8 7 7 7 7 6 5 5 5 5 5 5 5 6 5 6 6 7 5 6 7 7 8 8 6 7 7 8 9 7 8 6 7 6 6 7 4 3 0 3 0 3 1 4 5 8 8 7 8 9 8 8 8 8 8 14 14 9 13 17 17 17 18 17 17 16 16 16 15 14 14 14 13 12 11 11 10 11 10 10 9 8 7
7 7 8 8 8 8 7 7 7 7 6 6 6 5 5 5 5 6 6 6 6 6 6 6 8 8 8 8 8 7 7 7 7 8 7 8 8 7 8 5 3 1 4 3 3 8 5 4 7 8 10 9 9 8 9 8 9 14 14 10 8 16 18 19 19 19 18 18 17 17 17 16 15 15 15 14 14 12 12 11 10 9 9 9 7
7 8 9 7 8 8 8 8 7 7 7 7 6 5 5 5 6 6 7 6 6 6 7 6 8 8 9 8 7 9 6 7 8 8 7 8 8 6 7 9 10 9 3 6 5 8 6 6 4 9 9 10 9 8 8 9 9 16 14 8 8 10 18 20 21 20 20 20 19 19 18 18 17 15 15 14 14 13 12 12 11 10 8 7 7
7 6 8 8 8 8 7 7 7 6 7 7 6 6 5 4 5 6 7 7 6 7 7 7 7 7 7 8 8 8 7 6 7 7 7 7 7 7 8 11 9 11 8 8 9 9 7 10 8 10 12 10 10 8 9 10 11 14 10 9 9 8 14 21 21 20 20 21 21 20 19 18 17 16 14 13 13 13 10 9 8 6 8 6 5
6 7 7 8 8 9 8 9 8 7 6 6 6 6 6 6 5 5 6 6 6 7 6 7 7 7 7 7 7 8 7 7 8 7 7 8 8 7 8 8 8 13 11 10 11 9 7 6 9 6 10 12 11 9 10 11 12 16 10 10 10 10 15 22 21 21 21 21 21 20 20 19 18 17 16 14 13 12 12 11 9 9 7 7 6
7 8 8 8 8 9 7 8 8 9 8 8 6 6 5 6 6 6 6 6 6 7 7 7 7 6 7 9 8 8 7 8 9 7 7 7 7 7 7 7 9 12 13 7 12 6 9 9 10 8 9 13 11 10 8 9 12 16 11 10 10 12 17 16 22 22 22 22 21 20 19 19 18 17 16 15 14 13 13 12 11 9 8 7 6
6 6 7 7 8 9 9 9 9 8 8 8 7 7 7 6 6 6 7 5 6 7 8 7 6 6 7 8 9 8 8 7 9 7 8 8 7 7 8 8 9 10 10 9 13 14 8 11 10 12 11 12 12 12 11 8 9 19 11 10 10 12 12 9 19 23 23 22 22 21 20 19 18 17 16 16 15 14 13 12 11 11 9 8 7
5 6 5 6 7 7 8 8 8 9 9 9 8 7 7 7 7 6 6 6 6 7 7 8 7 6 8 9 9 9 7 9 9 7 8 8 7 8 8 7 9 8 9 10 13 14 4 4 4 8 9 10 9 12 12 10 9 11 10 10 10 11 10 9 9 19 22 22 22 22 21 20 19 18 17 16 16 15 14 13 12 11 10 8 8
4 6 6 5 5 7 6 7 8 8 9 9 9 8 8 8 7 6 6 7 7 8 6 8 8 7 7 9 10 9 8 9 9 9 8 8 8 9 9 8 9 9 8 9 12 11 12 3 4 3 6 10 11 10 15 14 13 11 12 11 10 11 10 9 8 9 20 21 22 22 21 21 20 19 18 18 17 16 15 14 12 11 10 9 8
4 5 6 6 6 6 6 6 6 7 8 8 8 8 9 8 8 8 7 7 7 8 8 9 9 8 8 8 9 8 7 9 10 9 8 9 8 10 12 9 10 10 8 9 9 11 11 8 6 7 9 9 13 14 15 13 12 12 13 11 12 9 8 9 9 7 14 21 22 22 22 21 20 19 19 19 18 17 17 16 14 13 11 10 10
6 6 5 6 6 7 7 7 7 7 8 8 8 8 9 9 9 9 9 8 8 8 8 9 8 8 9 9 9 8 8 10 10 9 8 8 9 10 11 11 10 11 8 8 10 10 8 9 7 10 8 10 10 6 8 7 10 11 12 10 5 8 8 8 9 8 11 20 22 22 22 21 20 20 20 19 19 18 18 18 16 15 13 11 10
5 7 8 6 7 7 7 8 8 8 8 8 8 9 9 9 9 9 9 9 9 9 9 9 8 9 9 10 10 8 8 10 10 9 9 10 10 10 11 11 10 10 7 8 10 9 8 10 7 6 6 8 6 5 10 12 9 8 8 10 11 10 8 6 5 6 10 20 21 22 21 21 21 21 21 20 20 19 19 18 17 16 15 13 12
5 5 6 6 6 8 8 8 8 9 8 8 8 9 9 10 10 9 9 9 10 10 10 9 9 8 9 10 10 9 9 10 10 10 9 11 10 11 12 11 10 9 10 9 9 9 10 11 8 7 6 9 6 6 11 12 12 10 7 7 4 7 8 8 9 7 7 8 9 11 16 18 21 22 21 20 21 20 19 18 18 17 16 15 14
6 7 6 7 7 7 9 9 9 10 10 9 9 10 10 9 9 10 10 10 10 9 9 10 9 9 9 10 10 10 10 11 11 11 10 11 10 12 12 11 10 10 11 11 10 10 11 11 8 8 9 9 10 11 9 11 11 12 14 12 9 7 8 11 11 8 8 9 9 13 12 11 13 13 19 21 21 20 19 18 18 17 16 16 15
7 7 8 8 8 7 9 9 9 9 11 12 11 11 10 10 10 10 10 11 11 11 10 10 10 10 10 10 10 11 11 11 11 11 10 11 10 11 11 9 9 10 12 11 10 11 12 11 11 9 8 9 8 2 3 8 9 8 8 11 14 13 13 13 14 13 10 9 9 9 11 12 13 16 19 19 21 20 20 18 19 16 16 16 16
8 8 8 9 10 11 10 9 11 10 11 11 10 10 11 12 11 12 12 13 13 13 12 12 11 11 11 10 11 11 13 16 18 16 14 13 10 11 10 8 8 10 11 11 10 11 11 12 11 7 8 9 11 11 11 13 17 19 13 11 12 14 11 8 9 8 9 11 9 8 9 10 10 10 9 9 11 17 17 18 12 18 18 17 17
8 9 9 10 10 11 13 13 12 11 11 10 12 21 19 14 13 12 12 13 13 13 14 14 13 12 12 12 12 17 18 20 20 20 21 21 20 16 12 9 10 11 11 12 12 12 12 13 13 11 10 13 13 15 15 17 14 8 10 14 15 9 7 9 7 7 8 9 10 11 10 9 10 9 9 10 9 11 8 11 9 10 14 19 18
10 10 10 11 12 12 13 13 15 13 12 12 23 25 25 26 18 14 14 13 13 14 13 14 15 15 14 13 12 14 16 17 17 21 22 23 22 23 23 21 16 13 11 13 13 12 12 13 12 11 13 16 16 14 15 12 11 14 16 15 13 10 13 14 14 7 9 12 11 9 10 10 10 12 11 11 11 10 10 10 14 18 18 19 19
11 10 12 13 13 13 12 13 14 15 14 18 27 26 27 27 24 17 14 14 14 14 14 15 14 13 14 14 13 11 12 13 13 13 17 21 23 23 24 23 23 24 22 16 14 13 13 14 14 14 13 16 16 13 12 11 13 13 11 11 14 15 15 14 14 13 11 17 13 13 15 10 11 11 10 11 10 11 12 14 20 20 20 21 20
10 12 14 14 14 14 14 15 15 16 15 21 27 28 27 27 28 23 14 15 16 15 16 16 16 16 14 13 13 12 12 18 16 14 14 14 18 23 24 24 25 25 25 28 26 19 13 14 15 16 16 14 13 12 14 14 11 13 13 13 14 14 13 15 15 12 8 18 14 13 15 12 13 13 13 11 10 10 11 17 22 22 21 22 22
12 13 14 15 15 15 15 15 15 16 17 21 28 28 27 28 28 25 16 16 17 17 17 17 16 17 17 16 15 14 13 14 13 14 14 14 13 13 14 14 15 19 24 27 27 28 24 17 16 17 17 13 13 11 11 13 15 16 16 16 15 15 15 18 15 10 8 16 21 17 11 10 13 11 12 10 9 10 10 16 24 23 23 23 23
13 13 14 15 15 15 15 14 14 16 16 27 29 30 29 30 30 25 16 15 15 16 17 17 17 17 18 17 17 17 17 15 13 14 14 14 13 12 13 14 15 15 15 17 18 18 17 16 18 19 18 14 13 11 11 15 18 17 17 18 18 17 16 11 4 5 5 11 11 8 14 10 10 12 13 10 10 10 9 15 23 24 24 24 24
11 12 13 13 15 16 15 14 15 17 18 29 29 30 31 30 31 19 13 14 14 15 17 18 18 17 16 17 17 18 19 18 17 21 20 15 13 15 16 15 15 14 15 17 22 21 18 16 17 18 16 14 14 12 11 14 14 13 10 7 5 8 9 9 13 7 6 10 16 14 9 7 11 13 12 8 8 9 9 9 20 25 25 25 25
13 13 13 13 13 15 16 15 15 16 17 23 28 29 29 32 26 16 15 15 14 16 17 16 16 15 16 15 16 16 17 19 19 23 24 23 16 17 17 17 16 14 15 14 18 25 25 25 25 26 26 23 22 22 15 19 16 14 11 10 14 13 13 14 13 8 10 9 11 13 7 5 10 12 8 7 10 10 10 11 11 20 25 25 25
14 13 12 14 14 13 14 15 13 15 17 22 30 30 32 32 27 19 14 14 16 16 17 17 14 13 16 30 28 20 20 21 23 29 28 22 18 18 18 18 18 17 16 14 11 12 22 25 26 27 27 25 24 24 22 19 21 17 16 19 17 12 13 14 16 13 9 9 13 13 9 8 9 8 7 3 5 4 7 7 9 11 21 20 24
13 12 12 13 13 12 10 13 22 23 18 22 29 29 30 30 24 16 15 14 15 16 15 15 15 14 15 20 30 28 25 25 33 32 33 28 19 18 18 18 19 19 17 15 13 12 11 13 16 18 18 20 19 17 17 22 23 23 19 19 13 15 17 18 14 7 6 10 13 16 13 7 12 9 10 7 5 2 4 8 9 9 9 9 12
Wind_Direction
169 175 160 172 167 167 166 167 162 164 159 170 163 160 159 161 166 174 183 195 192 169 139 136 138 138 138 143 144 141 139 134 125 137 143 145 124 73 64 50 36 28 15 259 208 195 214 176 185 186 197 188 201 134 171 193 142 114 127 132 119 124 97 89 139 99 121 87 80 68 89 97 85 85 89 86 80 74 70 76 68 66 64 67 69
171 169 167 172 169 168 168 168 169 168 169 175 180 165 166 164 168 177 181 187 184 175 145 146 145 154 148 156 158 155 156 152 136 138 147 142 125 62 58 49 48 49 38 19 205 218 196 188 192 195 204 187 198 180 156 262 132 185 147 117 108 103 136 130 124 140 78 70 64 99 108 96 86 83 80 83 84 83 75 65 66 62 64 66 66
171 172 173 166 168 168 176 169 172 183 179 176 174 175 164 172 175 174 179 181 182 170 154 152 160 164 169 158 172 150 149 144 124 125 126 134 113 67 36 48 54 49 45 59 104 223 207 184 197 185 227 210 201 216 167 237 167 136 153 146 136 142 130 136 150 152 89 88 97 103 104 103 104 85 83 76 81 83 82 79 71 70 69 63 59
170 172 172 168 168 171 171 175 184 182 184 169 169 174 170 169 167 171 172 169 166 167 160 147 159 172 165 164 169 146 146 135 111 122 131 131 130 89 44 34 39 40 44 50 57 54 164 169 190 23 326 276 217 208 191 175 226 175 172 160 166 152 101 146 172 160 124 137 151 130 120 116 92 87 82 84 73 76 80 74 74 70 73 74 71
179 172 170 169 167 168 174 183 176 172 180 172 160 163 160 160 171 161 159 158 156 171 154 148 149 171 161 171 157 150 151 126 127 126 140 151 150 146 106 56 39 38 38 36 39 40 56 146 59 36 9 331 226 208 197 198 215 201 187 174 176 137 146 291 189 167 170 143 139 138 120 99 90 96 96 84 79 74 67 78 77 79 80 78 77
164 168 165 165 170 173 172 179 175 172 168 163 167 166 164 162 169 159 168 164 174 173 159 159 169 159 164 173 158 166 148 135 147 153 141 147 165 158 159 92 64 49 31 28 29 33 45 57 59 37 16 356 178 310 196 203 198 205 195 192 199 175 161 167 180 182 150 142 141 135 119 113 112 112 98 91 83 81 85 86 83 93 97 93 87
163 160 169 165 167 173 177 178 164 162 163 174 163 172 162 171 161 167 165 170 172 175 168 165 162 169 179 169 167 163 142 148 148 147 139 151 154 170 157 161 139 78 43 29 23 25 35 48 43 40 30 17 34 160 183 203 218 208 201 191 191 194 183 179 165 137 142 141 143 139 133 136 135 124 107 97 94 112 104 95 86 94 93 95 96
155 156 160 168 168 172 175 150 159 154 161 164 160 171 172 166 178 159 161 183 168 177 162 156 160 168 175 166 173 159 144 142 148 152 165 127 124 115 142 164 136 124 93 61 39 14 37 37 41 34 28 21 25 39 208 197 211 207 202 195 209 181 195 195 174 160 169 165 156 145 129 133 135 104 106 109 110 100 98 100 98 94 90 92 85
146 154 155 162 164 166 162 160 153 157 159 166 171 167 164 169 177 183 167 170 176 160 160 154 160 166 161 163 172 152 149 154 154 161 126 125 107 113 114 128 123 126 120 112 73 36 33 43 45 36 20 18 22 22 29 11 210 202 198 212 192 194 184 191 204 160 158 127 98 165 135 118 123 122 124 145 155 154 136 123 118 121 120 116 110
139 146 151 159 161 163 162 161 159 158 161 165 179 157 163 161 175 196 170 153 177 168 168 158 149 152 158 169 168 148 165 158 162 145 136 140 138 143 166 141 114 139 141 145 140 89 37 44 43 32 19 14 21 22 26 14 357 212 196 198 198 200 161 101 95 122 136 155 186 184 163 144 193 191 198 193 195 171 173 162 158 151 142 139 136
141 149 152 157 157 161 166 171 165 161 162 170 165 165 166 180 175 186 183 182 171 180 163 146 134 130 128 125 113 148 171 162 158 146 156 166 165 176 149 153 133 138 152 165 178 169 127 15 49 36 10 15 19 18 15 18 345 338 215 190 198 196 183 156 163 150 182 196 202 204 214 219 217 214 212 205 203 191 192 181 148 149 144 126 118
145 158 157 160 163 174 178 172 171 164 168 173 182 180 183 179 192 177 178 183 172 157 140 127 92 83 73 38 35 91 128 158 161 173 166 165 165 154 170 189 151 156 150 171 175 191 183 194 99 92 19 22 27 11 18 12 359 342 279 196 193 190 190 193 190 190 194 195 209 214 217 221 215 213 210 217 218 219 199 190 168 162 151 150 162
99 136 167 166 175 168 171 177 172 177 180 192 189 191 188 182 180 179 170 173 187 175 167 138 129 73 26 29 12 348 7 100 185 192 179 176 168 166 177 161 179 166 179 169 169 172 168 174 178 161 114 39 359 11 10 3 352 324 331 211 202 180 192 186 182 191 190 197 202 205 214 215 220 223 226 225 221 214 206 194 187 174 162 163 154
20 45 92 158 160 165 182 185 178 192 198 189 184 189 180 182 165 186 206 180 190 179 176 131 176 169 155 191 342 325 302 310 252 216 189 188 184 172 172 178 187 196 188 175 183 183 183 184 182 180 178 63 18 359 356 350 333 338 330 308 201 189 188 185 198 186 190 190 199 199 199 216 226 231 231 228 223 217 208 203 189 179 177 178 191
12 16 12 327 231 168 206 196 194 187 181 189 189 194 193 187 182 185 199 235 185 190 183 193 163 132 105 99 219 188 296 307 262 223 203 200 189 190 187 185 195 193 185 181 191 199 201 182 183 186 172 162 143 41 355 337 349 340 344 346 220 187 192 199 188 180 184 192 190 188 193 216 221 229 228 223 221 214 206 202 192 194 190 171 183
12 10 360 352 323 256 300 207 220 206 199 194 194 204 198 196 195 204 176 187 199 208 210 195 143 140 185 201 192 140 244 238 211 238 200 201 190 203 189 195 192 195 183 186 197 199 203 181 185 185 175 175 169 147 228 327 333 342 358 350 350 198 198 194 183 182 194 187 181 189 193 200 223 217 219 217 215 214 207 201 200 192 176 180 175
358 353 352 330 344 343 137 232 249 239 226 219 208 210 205 202 198 197 192 192 211 211 221 223 208 200 154 107 54 262 219 226 142 259 199 216 222 204 205 192 192 191 190 203 201 201 194 190 188 182 176 172 169 169 158 239 325 338 342 358 11 12 193 192 187 185 192 188 191 181 183 195 215 217 213 214 212 220 207 201 207 195 193 187 176
3 353 344 341 327 329 354 167 222 225 223 228 227 233 229 222 213 205 208 218 204 193 213 235 235 242 237 223 153 177 179 207 125 241 283 237 227 221 207 202 193 192 203 204 204 207 205 194 188 191 177 174 175 168 170 182 203 297 328 339 34 40 120 179 181 190 190 190 198 182 182 196 205 225 223 219 218 215 215 205 206 198 192 186 172
341 1 352 341 334 327 324 309 233 229 225 229 236 227 226 222 220 217 217 219 194 202 209 215 238 265 260 261 348 138 147 132 205 91 225 282 245 222 227 216 205 200 204 208 203 203 213 202 198 193 185 177 174 174 169 169 174 188 214 244 105 69 56 44 192 193 203 195 191 192 187 196 207 218 225 226 223 220 210 202 204 197 181 184 177
347 339 348 344 341 326 324 320 311 268 243 229 232 234 236 241 228 230 232 226 215 215 212 211 204 226 231 250 265 321 218 42 151 173 164 169 232 254 275 224 215 220 209 203 202 203 201 211 204 201 196 185 176 174 172 169 168 176 187 188 160 137 112 94 64 124 193 194 195 200 198 199 207 215 219 221 219 220 207 206 206 198 183 180 173
340 333 328 339 333 320 321 324 316 303 270 270 263 255 242 237 235 231 226 230 220 226 219 219 217 228 218 250 259 251 257 243 269 158 161 182 239 194 215 223 247 241 225 209 206 201 199 198 203 204 203 197 184 177 172 168 171 172 186 187 180 175 167 151 137 115 90 67 53 211 200 205 208 215 219 217 217 219 218 208 205 202 191 184 179
345 335 335 325 324 319 320 313 305 304 308 275 276 276 267 255 243 235 232 233 228 221 224 224 222 232 221 225 228 234 271 274 271 236 311 214 198 195 198 185 202 230 208 215 211 201 196 192 196 204 210 205 197 185 176 173 172 173 184 187 186 186 182 174 162 146 138 128 99 34 199 200 210 213 217 217 211 215 214 213 205 203 199 190 180
9 3 358 345 327 315 301 294 310 308 309 306 285 269 269 262 257 250 245 236 233 233 234 230 225 229 234 225 228 213 215 211 211 209 208 208 151 216 194 204 204 219 222 213 203 204 198 194 194 200 201 204 200 196 187 180 172 177 179 186 187 188 188 184 177 170 164 152 145 141 127 75 233 214 211 213 212 211 209 213 208 205 202 195 186
10 5 1 354 352 329 314 318 312 312 304 297 296 287 283 281 275 261 254 247 248 244 242 238 230 233 234 228 235 233 240 238 227 207 209 223 204 209 190 190 281 245 270 195 208 201 205 203 206 199 199 196 197 194 190 180 187 178 177 186 188 192 192 188 185 180 178 175 171 173 173 182 201 225 222 213 211 209 211 209 206 207 203 194 183
2 360 354 352 348 352 336 319 317 312 306 311 299 299 295 290 283 277 268 258 245 237 238 237 230 228 230 230 230 231 235 234 224 219 240 251 224 221 223 186 209 236 233 157 210 215 205 212 205 206 196 201 194 190 187 186 188 185 173 185 188 194 194 192 188 186 184 183 183 183 185 190 195 209 220 225 220 216 215 215 208 206 204 200 189
354 354 344 345 353 347 346 336 327 319 314 307 303 300 303 297 291 288 279 270 267 256 248 248 245 241 235 240 237 234 239 233 232 220 221 216 229 213 180 225 120 237 299 199 223 162 244 222 209 199 200 203 201 190 188 187 186 188 177 177 193 194 195 194 192 188 187 188 190 189 191 194 199 204 211 214 216 214 218 221 214 206 206 203 200
355 341 346 352 351 351 351 346 338 331 324 318 310 310 307 309 302 290 292 282 275 267 265 258 256 252 243 233 242 238 234 233 231 234 215 216 212 193 171 195 260 220 236 228 242 223 213 219 196 206 204 200 201 196 191 188 187 183 178 176 190 198 195 197 195 191 191 192 193 193 193 195 201 206 208 209 208 208 211 216 217 212 209 205 198
351 352 350 355 350 351 350 347 342 339 329 318 310 308 307 312 304 303 296 292 288 282 271 264 262 259 255 253 245 249 235 230 231 237 228 223 218 200 195 205 216 251 236 247 225 243 210 210 212 214 202 202 203 196 190 177 187 186 176 177 183 195 199 199 198 196 193 192 195 195 197 199 202 208 206 209 212 209 211 211 209 206 205 199 199
350 353 349 349 350 350 345 341 340 337 336 330 317 306 304 303 295 294 293 289 289 283 281 276 268 264 265 259 251 256 248 239 239 236 235 232 230 218 200 209 207 232 229 228 230 220 233 202 197 216 203 201 198 193 183 195 190 182 182 182 182 186 201 199 200 199 195 194 195 196 196 197 201 205 209 209 208 210 212 214 207 202 198 198 188
352 342 347 346 345 349 347 342 339 338 338 331 331 319 312 305 292 286 276 284 289 288 278 270 273 268 267 270 263 262 256 250 244 238 235 231 230 223 218 221 206 225 230 221 245 191 222 215 210 198 197 204 196 192 192 195 191 183 184 184 185 188 197 199 201 201 199 199 199 198 196 197 199 202 206 206 206 207 211 209 207 209 207 202 205
348 350 347 345 345 340 345 338 337 337 334 334 333 330 323 309 300 294 292 290 286 283 280 278 273 270 270 270 269 265 259 256 256 246 243 241 236 231 232 224 225 226 233 209 251 225 181 201 218 208 194 201 193 192 193 193 191 188 184 188 192 187 193 202 203 203 202 201 200 200 200 198 200 202 203 203 204 206 209 210 210 208 207 207 211
340 342 343 341 340 340 338 339 335 334 333 327 332 329 329 317 306 303 290 291 288 281 282 278 274 272 272 271 268 266 265 257 257 252 249 242 236 238 231 227 232 232 232 227 234 245 182 203 201 201 192 189 189 188 195 191 196 191 187 189 189 181 195 203 205 204 202 200 200 199 199 198 199 202 203 203 204 206 207 211 210 211 207 206 208
335 335 334 333 330 329 328 331 332 331 332 328 328 327 324 319 313 300 298 294 285 280 276 280 276 270 269 269 269 266 262 261 260 258 253 247 245 242 236 229 233 228 224 232 238 250 223 236 171 197 189 171 191 193 189 190 187 197 189 189 183 191 194 198 202 208 204 202 200 198 197 197 198 200 202 203 204 206 208 210 210 209 208 205 207
336 323 324 324 324 324 326 323 326 325 324 325 323 327 322 318 312 308 302 297 291 286 281 278 275 270 265 268 270 268 262 258 260 259 254 253 244 247 246 232 232 231 216 220 240 242 241 179 196 166 174 188 192 190 189 185 197 190 193 192 194 193 193 188 194 206 207 204 202 200 198 197 198 199 200 202 201 202 206 207 207 205 204 207 208
323 319 314 318 315 317 314 312 316 319 318 316 316 318 315 312 307 304 298 292 286 286 284 276 276 275 274 268 268 267 267 266 262 256 255 253 250 247 250 240 239 235 218 216 227 240 237 228 191 182 190 189 194 193 197 198 193 187 190 193 194 195 193 186 191 195 210 205 205 202 200 198 198 199 201 201 201 201 202 204 202 202 204 206 207
324 315 316 311 315 313 313 309 311 310 310 308 309 307 304 302 301 299 297 292 285 277 274 276 276 273 270 275 270 262 260 264 265 262 255 250 250 251 253 249 246 245 222 216 221 234 228 222 205 194 191 184 213 202 198 181 178 187 197 195 186 194 192 191 192 191 209 210 209 205 201 199 198 200 202 203 203 202 201 201 199 198 199 201 202
315 318 319 322 316 314 308 306 306 306 302 299 298 298 296 294 291 290 289 288 284 280 274 271 270 269 270 267 271 268 259 262 266 264 261 255 252 251 252 251 249 249 239 218 226 223 225 225 213 205 188 207 202 180 181 174 180 188 193 193 197 194 191 190 192 203 203 214 214 210 204 200 199 201 203 203 205 204 202 201 198 195 194 195 195
303 300 301 306 305 304 305 301 298 293 291 288 285 285 285 286 286 284 284 282 281 279 279 275 270 265 265 266 265 264 261 258 261 259 257 258 256 253 252 252 249 250 247 239 228 227 225 233 204 186 197 191 181 191 188 184 177 183 195 202 179 190 184 191 205 200 198 199 201 208 207 205 202 202 202 204 205 205 204 203 201 198 194 192 193
304 308 307 306 305 301 300 300 296 295 294 289 286 284 282 277 273 277 280 280 275 273 272 272 270 267 262 263 263 260 260 257 258 256 252 251 248 253 252 252 248 246 247 244 237 231 230 232 222 199 193 204 191 191 193 190 194 192 187 179 196 199 198 201 203 203 199 203 211 208 208 205 201 199 202 204 205 206 206 206 204 201 196 194 192
307 306 307 305 301 302 299 298 296 296 295 293 289 285 280 278 277 276 275 273 272 269 267 263 263 263 262 260 260 258 255 256 254 255 250 252 249 250 249 249 248 244 245 246 242 237 234 230 223 208 198 189 205 183 105 170 187 212 203 186 191 193 205 207 205 194 195 191 195 202 208 207 206 204 204 205 206 207 208 206 206 203 201 197 196
306 304 304 303 305 304 298 295 298 296 292 287 287 285 287 285 281 280 280 278 278 275 268 265 263 262 261 258 258 256 253 254 252 251 248 244 247 252 248 238 243 246 246 245 241 239 241 235 230 202 190 196 202 182 175 188 197 201 183 179 208 211 203 195 214 204 190 191 195 193 203 198 198 203 194 197 204 205 208 205 203 205 201 201 199
300 301 301 301 301 301 303 302 297 294 290 288 279 282 283 282 282 279 278 276 272 270 274 276 272 263 259 261 258 255 255 255 255 254 254 251 247 245 249 239 236 240 243 245 241 238 239 239 233 209 198 209 203 199 196 201 198 171 170 195 206 191 165 210 222 212 192 181 186 201 209 198 197 203 199 201 198 200 193 197 194 193 200 201 199
301 301 299 299 299 297 297 297 297 295 290 287 288 289 289 287 285 284 280 278 276 273 268 266 269 271 269 260 258 259 259 259 257 255 253 252 251 249 248 244 237 234 237 239 241 238 238 239 240 226 215 216 211 201 205 196 189 188 191 192 195 178 188 187 209 202 191 187 194 199 214 202 191 201 204 203 195 193 192 198 189 194 198 202 199
302 301 299 296 294 294 293 292 289 289 289 287 288 291 291 291 290 287 286 284 280 275 273 271 269 266 264 264 260 258 254 252 253 253 252 250 250 249 247 245 243 240 236 233 237 240 235 240 238 233 227 225 216 196 200 191 193 196 197 189 195 192 192 201 208 203 191 177 183 198 216 191 194 205 203 207 196 194 193 188 191 195 197 198 199
300 298 295 295 293 292 289 289 288 287 286 286 288 290 291 291 291 291 287 284 282 279 275 272 272 272 270 265 262 256 255 251 249 248 248 248 247 246 246 246 244 242 242 241 237 235 236 239 241 240 232 231 223 208 197 193 177 191 190 199 203 208 207 207 209 198 143 178 185 199 213 193 186 199 208 205 195 190 189 191 193 196 196 197 198
297 296 294 291 291 288 286 286 286 286 284 285 288 290 291 292 292 292 289 287 285 281 278 275 273 272 270 269 267 262 256 251 245 245 245 245 245 244 244 242 241 241 241 241 242 240 235 235 239 244 241 232 229 219 192 177 183 195 196 204 198 202 206 215 213 200 165 174 186 191 203 193 190 190 210 208 189 193 191 189 192 195 196 196 196
297 295 294 295 291 288 288 287 287 285 283 287 291 294 296 296 295 295 289 286 283 281 280 278 274 272 270 269 267 266 264 256 246 237 241 242 243 242 241 241 238 237 235 236 237 237 236 234 238 245 248 239 239 225 185 192 196 199 196 199 195 200 211 222 234 220 175 192 196 171 207 193 161 192 212 191 186 193 190 189 192 192 194 195 193
292 290 289 288 288 290 290 290 290 288 288 290 294 298 298 298 298 296 290 285 282 280 278 278 276 273 271 267 266 265 264 263 254 242 238 236 239 240 241 241 240 238 237 232 232 232 231 233 235 239 243 243 242 233 196 195 199 199 199 205 202 206 206 206 217 191 187 189 190 191 200 162 181 193 201 180 173 186 185 191 194 193 193 193 192
292 290 289 288 288 290 291 292 291 289 289 293 298 299 300 300 301 298 294 287 279 277 273 271 272 273 273 273 272 271 266 265 261 255 250 242 242 240 241 241 240 239 241 238 233 234 233 233 237 240 242 241 241 242 214 192 190 185 182 189 206 193 197 208 217 190 211 180 200 204 186 163 183 187 178 174 182 184 185 190 192 194 192 192 192
292 290 291 290 286 285 288 292 293 294 293 297 300 302 301 299 297 295 293 289 284 281 279 276 275 274 273 274 272 270 268 266 264 261 256 249 246 244 243 241 243 241 241 238 233 233 234 236 236 238 240 239 238 241 239 206 191 177 187 202 203 185 204 210 213 202 199 183 202 191 185 203 154 166 156 130 133 209 191 187 189 193 193 193 193
286 289 288 286 285 281 280 285 291 291 292 295 297 298 297 296 295 289 287 283 282 280 282 281 276 270 269 270 271 271 272 272 269 265 259 253 246 243 242 241 241 240 238 233 229 225 226 230 235 238 240 239 236 232 238 232 203 196 199 206 191 186 203 212 210 171 191 222 203 180 191 178 143 180 155 135 190 249 165 183 186 187 191 182 190